Temp
4 4 4 4 4 4 4 4 4 4 4 4 3 3 3 3 4 4 4 4 4 4 4 4 4 4 4 4 4 4 3 3 3 3 3 3 4 5 5 5 5 5 5 5 6 6 6 6 7 7 7 7
4 4 4 4 4 4 4 4 4 4 3 3 3 3 3 3 3 3 3 3 4 4 4 4 3 4 4 4 4 4 4 4 4 4 4 4 4 5 5 5 5 5 5 5 5 6 6 6 6 6 7 7
4 4 4 4 4 4 3 3 3 3 3 3 3 3 3 3 3 3 3 3 3 3 3 3 3 3 3 4 4 4 3 3 4 4 4 4 4 4 4 5 5 5 5 5 5 5 5 6 6 6 6 6
4 4 4 4 3 3 3 3 3 3 2 2 2 2 3 3 3 3 3 3 3 3 3 3 3 3 3 3 3 3 3 3 3 3 3 4 4 4 4 4 4 4 5 5 5 5 5 5 5 6 6 6
4 4 4 3 3 3 3 3 2 2 2 2 2 2 2 2 2 2 2 2 2 2 2 2 2 2 2 2 3 3 3 3 3 3 3 3 3 3 4 4 4 4 4 4 4 5 5 5 5 5 5 6
4 3 3 3 3 3 2 2 2 2 2 2 2 2 2 2 2 2 2 2 2 2 2 2 2 2 2 2 2 2 2 2 2 2 2 3 3 3 3 3 4 4 4 4 4 4 4 4 5 5 5 5
3 3 3 3 2 2 2 2 2 2 1 1 1 1 1 1 1 1 1 1 1 1 1 1 1 1 1 1 1 1 1 1 1 1 2 2 2 2 2 3 3 3 3 4 4 4 4 4 4 4 4 5
3 3 2 2 2 2 2 1 1 1 1 1 1 1 1 1 1 1 1 1 1 1 1 1 1 1 1 1 1 1 1 1 1 1 1 1 1 2 2 2 2 2 3 3 3 3 4 4 4 4 4 4
2 2 2 2 2 1 1 1 1 1 1 1 1 0 0 0 0 0 0 0 0 0 0 1 1 1 1 1 1 1 1 1 1 1 1 1 1 2 2 2 2 2 2 2 2 3 3 3 4 4 4 4
2 2 2 1 1 1 1 1 1 0 0 0 0 0 0 0 -0 -0 0 -0 0 0 0 0 0 0 1 1 1 1 1 1 1 1 1 1 2 2 2 2 2 2 2 2 2 2 2 3 3 3 3 3
2 1 1 1 1 1 1 0 0 0 0 0 0 0 -0 -0 -0 -0 -0 -0 -0 -0 -0 0 0 0 0 0 0 1 1 1 1 1 1 1 1 1 1 1 2 2 2 2 2 2 2 2 2 2 3 3
1 1 1 1 0 0 0 0 0 -0 -0 -0 -0 -0 -0 -0 -0 -0 -0 -0 -0 -0 -0 -0 -0 -0 0 0 0 0 0 0 1 1 1 1 1 1 1 1 1 1 2 2 2 2 2 2 2 2 2 2
1 1 0 0 0 -0 -0 -0 -0 -0 -0 -0 -0 -0 -0 -0 -1 -1 -1 -1 -1 -0 -0 -0 -0 -0 -0 -0 0 0 0 0 0 0 1 1 1 1 1 1 1 1 1 1 2 2 2 2 2 2 2 2
0 0 0 -0 -0 -0 -0 -0 -0 -0 -0 -1 -1 -1 -1 -1 -1 -1 -1 -1 -1 -1 -1 -0 -0 -0 -0 -0 -0 -0 0 0 0 0 0 0 0 1 1 1 1 1 1 1 1 1 2 2 2 2 2 2
0 0 -0 -0 -0 -0 -1 -1 -1 -1 -1 -1 -1 -1 -1 -1 -1 -1 -1 -1 -1 -1 -1 -1 -1 -1 -1 -1 -0 -0 -0 -0 -0 -0 -0 -0 0 0 0 0 1 1 1 1 1 1 1 1 1 1 1 1
0 -0 -0 -0 -1 -1 -1 -1 -1 -1 -1 -1 -1 -1 -1 -1 -1 -1 -1 -1 -1 -1 -1 -1 -1 -1 -1 -1 -1 -1 -1 -1 -1 -1 -1 -1 -1 -0 -0 -0 0 0 0 1 1 1 1 1 1 1 1 1
-0 -0 -1 -1 -1 -1 -1 -1 -1 -1 -1 -1 -1 -1 -1 -1 -1 -1 -1 -1 -1 -1 -1 -1 -1 -1 -2 -2 -2 -2 -2 -2 -2 -2 -2 -1 -1 -1 -1 -1 -0 -0 -0 0 0 0 1 1 1 1 1 1
-1 -1 -1 -1 -1 -1 -1 -1 -1 -1 -1 -1 -1 -1 -1 -1 -1 -1 -1 -1 -1 -1 -2 -2 -2 -2 -2 -2 -2 -2 -2 -2 -2 -2 -2 -2 -2 -2 -2 -1 -1 -1 -1 -0 -0 -0 0 0 0 0 0 0
-1 -1 -1 -1 -1 -1 -2 -2 -2 -2 -1 -1 -1 -1 -1 -1 -2 -2 -2 -2 -2 -2 -2 -2 -2 -3 -3 -3 -3 -3 -3 -3 -3 -3 -3 -3 -3 -3 -2 -2 -2 -2 -1 -1 -1 -1 -1 -1 -0 -0 -0 -0
-1 -1 -1 -1 -2 -2 -2 -2 -2 -2 -2 -2 -2 -2 -2 -2 -2 -2 -3 -3 -3 -3 -3 -3 -3 -3 -3 -3 -3 -3 -4 -4 -4 -4 -4 -4 -4 -4 -4 -3 -3 -3 -3 -2 -2 -2 -2 -1 -1 -1 -1 -1
-1 -1 -2 -2 -2 -2 -2 -2 -2 -2 -2 -2 -2 -2 -3 -3 -3 -3 -3 -3 -3 -3 -3 -3 -4 -4 -4 -4 -4 -4 -4 -4 -4 -4 -4 -4 -5 -5 -4 -4 -4 -4 -4 -3 -3 -3 -2 -2 -2 -2 -2 -2
-1 -2 -2 -2 -2 -2 -2 -2 -2 -2 -3 -3 -3 -3 -3 -3 -3 -3 -4 -4 -4 -4 -4 -4 -4 -4 -4 -4 -4 -5 -5 -5 -5 -5 -5 -5 -5 -5 -5 -5 -5 -4 -4 -4 -4 -3 -3 -3 -3 -3 -3 -3
-2 -2 -2 -2 -2 -2 -2 -3 -3 -3 -3 -3 -3 -4 -4 -4 -4 -4 -4 -4 -4 -4 -4 -5 -5 -5 -5 -5 -5 -5 -5 -5 -5 -5 -5 -6 -6 -6 -6 -6 -6 -5 -5 -5 -5 -4 -4 -4 -4 -4 -4 -4
-2 -2 -2 -2 -2 -2 -3 -3 -3 -3 -3 -4 -4 -4 -4 -4 -4 -4 -5 -5 -5 -5 -5 -5 -5 -5 -5 -6 -6 -6 -6 -6 -6 -6 -6 -6 -6 -6 -6 -6 -6 -6 -6 -6 -5 -5 -5 -5 -5 -5 -4 -4
-2 -2 -2 -2 -2 -3 -3 -3 -3 -3 -3 -4 -4 -4 -4 -4 -5 -5 -5 -5 -5 -6 -6 -6 -6 -6 -6 -6 -6 -6 -7 -7 -7 -7 -7 -7 -7 -7 -7 -7 -7 -7 -7 -7 -6 -6 -5 -5 -5 -5 -5 -5
-2 -2 -2 -2 -2 -3 -3 -3 -3 -4 -4 -4 -4 -5 -5 -5 -5 -5 -6 -6 -6 -6 -6 -6 -7 -7 -7 -7 -7 -7 -7 -7 -7 -7 -8 -8 -8 -8 -8 -8 -8 -8 -8 -8 -8 -7 -7 -6 -6 -6 -6 -6
-2 -2 -2 -2 -3 -3 -3 -3 -3 -4 -4 -4 -5 -5 -5 -6 -6 -6 -6 -6 -6 -7 -7 -7 -7 -7 -7 -7 -7 -8 -8 -8 -8 -8 -8 -8 -8 -8 -8 -9 -9 -9 -9 -9 -9 -9 -9 -9 -8 -8 -7 -7
-2 -2 -2 -2 -3 -3 -3 -3 -4 -4 -4 -5 -5 -5 -6 -6 -6 -6 -7 -7 -7 -7 -7 -7 -8 -8 -8 -8 -8 -8 -8 -8 -8 -8 -8 -9 -9 -9 -9 -9 -9 -9 -10 -10 -11 -11 -11 -11 -10 -10 -9 -7
-2 -2 -2 -3 -3 -3 -3 -3 -4 -4 -4 -5 -5 -5 -6 -6 -6 -7 -7 -7 -7 -8 -8 -8 -8 -8 -8 -9 -9 -9 -9 -9 -9 -9 -9 -9 -9 -9 -9 -9 -9 -10 -10 -11 -11 -12 -12 -12 -12 -12 -11 -10
-2 -2 -2 -2 -2 -3 -3 -4 -3 -4 -4 -5 -5 -5 -6 -6 -6 -7 -7 -7 -8 -8 -8 -8 -9 -9 -9 -9 -9 -9 -9 -9 -9 -9 -9 -9 -10 -10 -10 -10 -10 -10 -10 -11 -11 -12 -13 -13 -14 -14 -13 -13
-2 -2 -2 -2 -2 -3 -3 -3 -3 -4 -5 -5 -5 -5 -6 -6 -7 -7 -7 -8 -8 -9 -9 -9 -9 -9 -10 -10 -10 -10 -10 -10 -10 -10 -10 -10 -10 -10 -11 -11 -11 -11 -11 -11 -12 -12 -13 -13 -14 -14 -14 -15
Height
1596 1596 1596 1595 1595 1595 1594 1594 1593 1593 1592 1592 1591 1591 1591 1591 1590 1590 1590 1589 1589 1589 1588 1588 1587 1587 1586 1585 1585 1584 1584 1584 1583 1583 1582 1581 1580 1580 1580 1580 1579 1578 1578 1577 1576 1575 1575 1574 1574 1574 1574 1573
1595 1595 1595 1595 1594 1594 1593 1593 1593 1592 1592 1591 1591 1590 1590 1590 1589 1589 1589 1589 1588 1588 1588 1587 1587 1586 1585 1585 1585 1584 1584 1583 1582 1582 1581 1580 1580 1579 1579 1579 1579 1578 1577 1577 1576 1575 1574 1574 1573 1573 1573 1573
1595 1595 1594 1594 1594 1593 1593 1592 1592 1592 1592 1591 1591 1590 1589 1589 1589 1588 1588 1588 1587 1587 1586 1586 1585 1585 1584 1584 1584 1583 1583 1582 1581 1581 1580 1580 1579 1578 1578 1578 1578 1577 1577 1576 1576 1575 1574 1574 1573 1573 1572 1572
1594 1594 1594 1593 1593 1593 1592 1592 1592 1591 1591 1591 1590 1589 1589 1589 1588 1588 1587 1587 1586 1586 1585 1585 1584 1584 1583 1582 1582 1582 1581 1581 1580 1580 1579 1579 1578 1577 1577 1577 1576 1576 1576 1575 1575 1574 1574 1573 1573 1572 1572 1571
1594 1594 1593 1593 1592 1592 1592 1591 1591 1591 1590 1590 1589 1589 1589 1588 1588 1587 1587 1586 1585 1585 1584 1584 1583 1582 1582 1581 1581 1580 1580 1580 1579 1579 1578 1577 1577 1576 1576 1576 1575 1575 1575 1574 1573 1573 1573 1572 1572 1572 1571 1571
1593 1593 1593 1592 1592 1591 1591 1591 1590 1590 1589 1589 1589 1588 1588 1587 1587 1587 1586 1586 1585 1584 1584 1583 1582 1581 1581 1580 1580 1579 1579 1578 1578 1577 1577 1576 1576 1575 1575 1574 1574 1574 1574 1573 1573 1572 1572 1571 1571 1570 1570 1570
1593 1592 1592 1592 1591 1591 1590 1590 1589 1589 1588 1588 1588 1587 1587 1586 1586 1586 1585 1584 1584 1583 1583 1582 1581 1581 1580 1580 1579 1579 1578 1577 1577 1576 1575 1575 1574 1574 1573 1573 1573 1572 1572 1572 1572 1571 1571 1570 1570 1569 1569 1569
1592 1591 1591 1591 1590 1590 1589 1589 1589 1588 1588 1587 1587 1586 1586 1586 1585 1584 1584 1583 1583 1582 1582 1581 1581 1580 1580 1579 1578 1578 1577 1577 1576 1575 1574 1574 1573 1573 1572 1571 1571 1571 1570 1570 1570 1570 1569 1569 1568 1568 1568 1567
1591 1590 1590 1590 1589 1589 1588 1588 1588 1587 1587 1586 1586 1586 1585 1585 1584 1584 1583 1583 1582 1582 1581 1581 1580 1579 1579 1578 1577 1577 1576 1575 1575 1574 1573 1573 1572 1571 1571 1570 1569 1569 1568 1568 1568 1568 1568 1568 1567 1566 1566 1566
1589 1589 1589 1588 1588 1588 1587 1587 1586 1586 1586 1585 1585 1585 1584 1584 1583 1583 1582 1582 1581 1581 1580 1579 1579 1578 1577 1577 1576 1575 1574 1574 1573 1572 1572 1571 1570 1570 1569 1568 1568 1567 1566 1566 1565 1565 1565 1566 1565 1565 1565 1564
1588 1588 1588 1587 1587 1587 1586 1586 1586 1585 1585 1584 1584 1583 1583 1583 1582 1582 1581 1581 1580 1579 1579 1578 1578 1577 1576 1575 1574 1574 1573 1572 1571 1571 1570 1569 1569 1568 1567 1567 1566 1566 1565 1564 1563 1563 1563 1563 1563 1563 1563 1562
1587 1587 1586 1586 1586 1586 1585 1585 1584 1584 1584 1583 1583 1582 1582 1581 1581 1580 1580 1579 1579 1578 1577 1577 1576 1575 1574 1573 1573 1572 1571 1571 1570 1569 1568 1567 1567 1566 1565 1565 1564 1564 1563 1562 1561 1561 1561 1560 1560 1560 1560 1560
1585 1585 1585 1585 1585 1584 1584 1583 1583 1582 1582 1582 1581 1581 1580 1580 1579 1579 1578 1578 1577 1577 1576 1575 1574 1573 1573 1572 1571 1570 1569 1568 1567 1566 1566 1565 1564 1563 1563 1562 1561 1561 1560 1560 1559 1558 1558 1557 1557 1557 1557 1557
1584 1584 1584 1583 1583 1583 1582 1582 1581 1581 1580 1580 1579 1579 1578 1578 1577 1577 1576 1575 1575 1574 1574 1573 1572 1571 1571 1570 1569 1568 1567 1566 1565 1564 1563 1562 1561 1560 1559 1559 1558 1557 1557 1557 1556 1555 1555 1554 1554 1553 1553 1553
1583 1583 1582 1582 1581 1581 1580 1580 1579 1579 1578 1578 1577 1577 1576 1576 1575 1574 1574 1573 1572 1571 1571 1570 1569 1568 1568 1567 1566 1565 1565 1563 1563 1561 1560 1559 1558 1557 1556 1555 1554 1554 1553 1553 1553 1552 1552 1551 1551 1550 1550 1550
1581 1581 1581 1580 1580 1579 1579 1578 1578 1577 1577 1576 1575 1575 1574 1573 1573 1572 1571 1570 1569 1568 1567 1566 1565 1565 1564 1563 1563 1562 1561 1560 1559 1558 1557 1556 1555 1554 1553 1552 1551 1550 1550 1549 1549 1549 1548 1548 1548 1547 1546 1546
1580 1580 1579 1579 1578 1578 1577 1576 1576 1575 1575 1574 1573 1573 1572 1571 1570 1570 1569 1567 1566 1565 1564 1563 1562 1561 1560 1559 1559 1558 1557 1557 1556 1555 1554 1553 1553 1552 1551 1550 1549 1548 1547 1546 1545 1545 1544 1544 1544 1544 1543 1543
1578 1578 1577 1577 1576 1576 1575 1575 1574 1574 1573 1572 1571 1570 1569 1569 1568 1567 1566 1565 1564 1562 1561 1560 1559 1558 1557 1556 1556 1555 1554 1553 1552 1551 1551 1550 1549 1549 1547 1546 1546 1544 1543 1543 1542 1541 1541 1540 1540 1539 1539 1539
1576 1576 1575 1575 1574 1574 1573 1573 1572 1571 1571 1570 1569 1568 1567 1566 1565 1564 1563 1562 1561 1560 1559 1558 1557 1556 1555 1554 1553 1552 1551 1550 1549 1548 1547 1546 1545 1545 1544 1543 1542 1541 1540 1539 1539 1538 1537 1537 1536 1535 1535 1535
1574 1574 1573 1573 1572 1572 1571 1571 1570 1570 1569 1568 1567 1566 1565 1563 1562 1561 1560 1559 1558 1557 1556 1555 1554 1553 1552 1551 1550 1549 1548 1547 1546 1545 1545 1544 1542 1541 1541 1540 1539 1538 1537 1536 1536 1535 1534 1533 1533 1532 1531 1531
1572 1571 1571 1571 1570 1570 1569 1569 1568 1568 1567 1566 1565 1564 1562 1561 1560 1559 1558 1556 1555 1554 1553 1553 1552 1551 1550 1549 1548 1547 1546 1545 1543 1543 1542 1541 1540 1538 1537 1536 1535 1534 1533 1532 1532 1532 1531 1530 1529 1529 1528 1527
1570 1570 1569 1569 1568 1568 1567 1567 1566 1565 1564 1563 1562 1561 1560 1559 1558 1556 1555 1554 1553 1552 1551 1550 1549 1548 1548 1547 1546 1545 1544 1543 1542 1541 1539 1538 1537 1536 1535 1533 1532 1531 1530 1529 1528 1528 1528 1527 1526 1526 1525 1524
1568 1568 1567 1567 1567 1566 1565 1564 1564 1563 1562 1561 1560 1559 1558 1557 1556 1554 1553 1552 1551 1550 1549 1548 1547 1546 1545 1544 1544 1543 1542 1541 1540 1539 1538 1536 1535 1534 1533 1531 1529 1528 1526 1525 1525 1524 1524 1524 1524 1523 1522 1521
1566 1565 1565 1565 1564 1564 1563 1562 1561 1560 1559 1558 1557 1556 1555 1554 1553 1551 1550 1549 1548 1547 1546 1545 1545 1544 1543 1542 1541 1540 1539 1538 1537 1536 1535 1534 1533 1532 1531 1530 1528 1526 1524 1522 1521 1521 1521 1521 1521 1520 1519 1518
1563 1563 1563 1562 1562 1561 1560 1559 1558 1558 1557 1556 1555 1554 1553 1551 1550 1549 1548 1546 1545 1544 1544 1543 1542 1541 1540 1539 1538 1537 1536 1535 1534 1533 1532 1531 1530 1529 1528 1528 1526 1524 1522 1519 1518 1517 1517 1518 1518 1517 1516 1515
1560 1560 1560 1559 1559 1558 1557 1557 1556 1555 1554 1553 1552 1551 1550 1549 1547 1546 1545 1544 1543 1542 1541 1541 1540 1539 1538 1537 1536 1534 1533 1532 1531 1530 1529 1528 1527 1526 1525 1525 1523 1522 1520 1517 1515 1513 1512 1513 1514 1514 1513 1513
1558 1557 1557 1556 1556 1555 1554 1554 1553 1552 1551 1550 1549 1548 1547 1546 1545 1544 1543 1542 1541 1540 1539 1538 1538 1537 1536 1535 1533 1532 1531 1530 1529 1527 1526 1525 1524 1523 1522 1522 1521 1519 1518 1515 1514 1513 1511 1510 1510 1510 1510 1510
1555 1554 1554 1553 1553 1552 1551 1550 1550 1549 1548 1547 1546 1545 1544 1543 1542 1541 1540 1540 1539 1538 1537 1536 1535 1534 1533 1532 1531 1529 1528 1527 1526 1525 1524 1523 1522 1521 1520 1519 1518 1517 1516 1514 1513 1512 1510 1509 1508 1507 1507 1506
1551 1550 1550 1550 1549 1549 1548 1547 1546 1546 1545 1544 1543 1542 1541 1540 1539 1539 1538 1537 1536 1535 1535 1533 1533 1532 1530 1530 1528 1527 1526 1525 1524 1523 1522 1521 1520 1519 1518 1516 1516 1515 1515 1514 1512 1511 1510 1509 1508 1506 1505 1504
1547 1546 1546 1546 1545 1545 1544 1544 1543 1542 1541 1541 1540 1539 1538 1538 1537 1536 1536 1535 1534 1533 1532 1531 1530 1529 1528 1527 1526 1524 1523 1523 1521 1520 1520 1519 1517 1517 1516 1514 1513 1513 1512 1512 1511 1510 1510 1510 1508 1505 1504 1503
1542 1542 1542 1541 1541 1541 1540 1540 1539 1539 1538 1537 1537 1536 1535 1535 1534 1533 1533 1532 1531 1530 1529 1528 1527 1526 1525 1524 1523 1521 1521 1520 1519 1518 1517 1516 1515 1514 1513 1512 1511 1510 1510 1510 1509 1509 1508 1507 1506 1504 1503 1502
Wind_Speed
4 7 9 11 10 10 11 12 13 15 15 15 14 13 13 13 13 13 13 14 14 14 14 13 14 14 15 16 16 16 16 16 16 17 17 17 18 20 20 18 18 18 19 19 20 20 20 21 20 20 20 19
6 7 9 9 9 9 10 12 14 14 15 15 15 14 14 13 13 13 13 13 14 14 14 14 14 14 15 15 15 15 16 16 16 17 17 18 19 19 20 19 19 19 19 20 20 21 21 21 21 21 21 21
8 9 9 8 8 9 10 12 13 14 15 15 15 15 14 14 14 14 14 14 14 14 14 15 15 15 16 16 16 16 16 16 16 17 17 18 18 19 19 19 19 19 20 20 20 21 21 22 22 22 22 22
10 10 9 8 9 9 10 12 13 14 15 15 15 15 15 15 15 15 15 15 15 16 16 16 16 17 17 18 18 18 17 18 18 18 18 18 19 19 19 19 19 19 19 20 20 20 21 22 22 22 23 23
10 8 8 9 10 10 11 12 13 14 14 15 15 15 15 15 16 16 16 17 17 17 17 17 18 18 18 19 19 19 19 19 19 19 19 19 20 20 20 20 20 20 19 20 20 20 20 21 21 22 22 23
8 8 8 10 11 11 11 11 12 13 14 15 15 15 15 16 16 17 17 17 18 18 18 19 19 19 19 19 20 20 20 20 20 20 21 21 21 21 21 21 21 21 20 20 21 21 21 21 21 21 22 22
8 8 8 9 10 10 11 11 12 13 14 15 15 16 16 16 17 17 18 18 18 19 19 19 19 19 19 19 20 20 20 21 21 21 21 22 22 22 23 22 22 22 22 21 21 22 22 22 21 21 22 22
8 8 9 9 10 10 11 11 12 13 14 15 15 16 16 17 17 18 18 18 19 19 19 19 18 19 19 19 19 20 20 20 21 21 22 22 22 23 23 23 24 23 23 23 22 22 23 23 23 23 23 22
8 8 9 10 10 10 11 12 13 14 14 15 15 16 17 17 18 18 18 18 19 19 18 18 19 19 19 20 20 21 21 21 21 22 22 23 23 24 24 25 25 25 25 25 24 24 23 23 24 24 24 24
8 8 9 10 10 11 12 13 14 14 15 16 16 17 17 18 18 18 18 18 18 19 19 19 19 20 20 21 21 22 22 23 23 23 24 24 25 25 25 26 27 27 28 28 27 27 26 25 25 25 25 25
9 9 9 10 10 11 13 14 14 15 16 17 17 18 18 18 19 19 19 19 19 19 20 20 21 21 22 23 23 24 24 25 25 26 26 26 27 27 27 27 28 28 29 29 30 30 29 28 27 26 26 27
9 9 10 10 11 12 13 14 15 16 17 17 18 18 19 19 19 19 20 20 20 21 22 22 23 24 25 26 26 27 28 28 28 29 29 29 29 30 30 30 30 30 30 31 32 32 32 32 31 30 29 29
10 10 10 11 12 13 14 15 16 17 17 18 18 18 19 19 20 20 21 21 22 23 24 25 26 27 28 29 30 30 31 31 32 32 32 33 33 33 33 33 33 33 33 33 34 34 34 34 34 34 33 32
11 11 12 12 13 14 15 16 17 17 18 18 18 19 20 20 21 22 23 24 25 26 27 28 28 29 30 31 32 32 33 34 34 35 35 35 36 36 36 36 36 36 35 35 35 36 36 36 36 36 36 35
12 13 13 14 15 16 16 17 17 17 17 18 19 20 21 23 24 25 26 27 28 29 30 31 31 31 32 32 33 33 34 35 35 36 36 37 37 38 38 38 38 38 38 37 37 37 37 37 37 37 37 37
14 14 15 15 16 16 16 16 16 17 18 20 21 23 24 25 26 27 28 29 30 31 31 32 33 33 33 33 33 34 34 34 35 35 35 36 36 37 37 38 38 38 39 39 39 38 38 38 38 38 38 38
14 15 15 16 16 16 16 17 18 19 21 22 23 24 25 26 27 28 29 30 31 32 32 33 33 33 33 33 33 33 33 33 33 33 33 33 34 34 35 36 37 37 38 38 39 39 39 39 39 38 39 39
15 15 15 15 15 16 17 19 20 21 22 23 24 25 26 27 28 29 29 30 31 31 31 31 32 32 31 32 31 31 31 31 31 31 31 32 32 32 33 34 35 36 37 37 38 38 38 39 39 39 39 39
15 15 15 16 16 18 19 20 21 22 23 24 25 27 28 29 29 29 29 29 29 29 29 29 29 29 29 29 29 29 30 30 30 30 30 31 32 32 32 33 33 34 35 35 36 37 37 38 38 39 39 39
15 15 16 17 18 19 20 20 21 23 24 26 27 28 28 29 29 28 28 28 27 27 27 27 27 27 28 28 28 29 29 30 30 30 30 31 31 32 32 32 33 33 34 34 35 35 36 36 37 38 38 38
16 17 17 18 19 20 20 21 23 24 26 26 27 27 27 27 27 26 26 26 26 26 26 26 26 27 27 27 28 28 29 29 30 31 31 31 31 32 33 33 33 33 34 34 34 34 34 35 36 36 36 36
17 18 19 19 19 20 21 23 24 25 25 25 25 25 24 24 24 24 24 24 25 25 25 26 26 27 27 27 28 28 29 29 30 31 31 31 31 32 33 33 34 35 35 35 35 35 34 34 34 35 35 34
19 19 19 19 20 21 23 24 24 24 24 23 23 23 23 23 23 23 23 24 24 25 25 26 26 26 27 27 28 28 29 29 30 30 31 31 32 32 32 33 34 35 36 36 35 35 34 34 33 33 33 32
20 20 19 20 21 22 24 24 24 23 22 22 23 23 23 23 23 24 24 24 25 25 25 26 26 26 27 27 28 28 29 29 30 31 31 31 32 32 32 32 33 34 35 37 36 36 34 32 32 32 31 30
21 21 21 22 23 25 25 24 23 22 22 23 23 23 24 24 25 25 25 25 25 26 26 26 26 26 27 28 28 29 29 30 30 31 31 31 31 32 32 31 32 32 34 36 37 37 36 34 32 30 28 25
23 23 23 24 25 25 24 23 22 22 22 23 23 24 25 25 26 26 26 26 26 26 26 26 26 27 27 28 28 29 30 30 31 31 31 32 32 31 32 31 31 32 32 33 34 35 36 35 31 28 26 24
25 24 25 26 26 24 23 22 22 22 22 23 24 24 25 26 26 27 27 27 27 27 27 27 27 27 27 28 29 29 30 30 31 31 31 32 32 32 32 32 31 31 31 31 31 30 28 29 29 29 28 25
25 26 26 26 25 23 23 23 22 22 22 23 23 24 25 26 26 27 28 27 28 28 27 27 27 27 28 28 29 30 30 31 31 31 31 32 32 32 33 33 32 30 30 29 29 26 23 24 23 21 22 25
27 27 27 26 24 23 23 23 23 23 23 23 24 25 26 26 27 28 28 28 28 28 28 27 27 27 28 28 29 30 30 30 31 31 31 32 32 32 32 33 33 31 30 28 26 25 22 17 14 15 21 27
29 29 28 27 25 24 24 23 23 23 24 25 25 26 26 27 27 28 29 29 29 28 28 28 27 27 28 28 28 29 29 29 30 31 31 31 32 32 32 32 33 31 30 29 26 25 22 16 16 21 25 24
31 31 30 28 27 26 25 25 24 24 25 26 27 27 27 27 28 28 29 29 29 28 28 28 28 27 28 28 28 29 29 29 30 30 30 31 31 31 31 31 32 31 30 29 26 24 23 21 20 23 23 21
Wind_Direction
320 328 339 349 351 356 2 7 9 10 9 8 8 6 7 6 5 6 4 4 2 4 4 3 3 359 360 1 3 4 2 0 359 358 357 355 352 349 349 348 346 342 340 336 334 333 331 331 329 328 326 324
300 315 331 340 348 358 2 7 8 7 6 2 0 359 359 359 359 360 358 357 357 357 358 359 358 356 355 355 357 358 356 356 355 355 353 351 349 348 348 346 343 341 338 335 332 330 329 327 327 326 325 324
293 310 325 335 345 354 358 3 5 4 2 359 356 353 352 353 353 353 352 352 352 351 352 352 352 351 350 350 351 352 352 352 352 352 350 349 348 347 346 345 343 340 337 335 332 329 327 325 324 323 322 321
297 311 319 330 341 350 356 358 359 358 356 355 353 350 349 349 348 348 347 347 347 347 347 347 346 347 346 346 346 347 348 348 348 347 346 345 345 344 343 343 342 340 338 335 332 329 326 324 322 321 319 318
298 310 321 335 343 347 350 350 351 350 350 350 348 347 346 345 344 344 344 344 343 343 342 342 343 343 343 343 342 343 344 343 343 343 342 342 341 341 340 340 339 339 337 334 332 329 326 324 321 319 317 316
299 315 330 337 339 340 340 341 342 343 344 344 343 343 342 341 340 340 340 339 339 339 339 339 339 339 338 339 339 339 339 339 340 339 339 339 338 338 338 337 337 336 335 334 332 330 328 326 323 319 316 314
304 317 327 330 330 331 331 334 335 337 339 339 339 338 337 337 337 337 336 336 336 336 335 335 334 333 333 333 334 334 335 335 335 336 335 336 336 335 335 334 334 333 332 332 330 329 328 327 325 323 319 315
305 312 318 322 323 324 325 328 329 332 333 334 334 333 334 333 333 332 332 332 331 331 330 329 328 327 328 327 328 328 329 329 329 330 331 331 331 331 331 330 330 330 329 329 328 327 326 325 325 324 322 319
301 307 314 317 318 320 321 323 325 327 329 330 330 329 329 328 329 328 327 327 326 325 324 324 324 323 323 322 323 323 323 324 324 324 324 325 326 326 326 326 326 326 326 325 325 324 323 323 322 322 321 320
298 303 309 312 314 316 317 320 322 325 326 326 326 325 326 325 325 324 323 323 322 322 321 320 320 319 319 319 319 319 319 320 320 320 320 321 321 321 322 322 322 322 322 321 321 321 320 320 318 318 318 317
296 300 304 306 308 311 314 317 319 322 323 323 323 323 324 323 323 323 322 322 321 320 319 318 317 317 317 316 316 316 316 317 317 317 317 316 316 316 316 316 316 316 316 316 316 316 316 315 315 314 313 313
292 295 297 300 303 307 311 313 316 317 318 319 320 321 321 323 323 323 323 322 321 320 319 318 317 316 315 315 315 314 314 314 313 313 312 312 312 311 311 311 311 311 311 311 311 311 311 311 310 310 309 308
286 289 292 297 301 305 308 310 313 313 316 318 319 321 321 322 322 321 321 319 318 317 316 315 314 313 313 312 312 311 311 311 310 310 309 309 309 308 308 308 307 307 307 307 307 307 307 307 307 307 306 305
283 288 292 297 301 304 307 308 311 313 315 318 319 320 320 320 320 318 317 316 315 313 312 311 309 309 308 308 308 308 307 307 308 307 307 307 307 307 306 306 306 305 305 304 305 304 305 305 305 305 304 304
283 289 294 298 301 303 305 307 309 312 314 316 317 317 317 317 316 315 314 313 312 311 309 308 307 306 306 306 305 305 305 306 306 306 306 306 306 306 305 305 305 304 304 303 303 302 302 302 302 302 302 302
283 289 293 296 300 301 303 306 308 311 312 314 314 314 313 313 312 312 312 311 310 309 308 307 307 307 307 306 306 306 307 306 306 306 305 305 305 304 304 304 303 303 302 302 301 300 300 299 299 299 299 299
284 288 292 294 296 299 303 306 308 310 311 311 312 312 311 311 311 311 311 311 310 309 309 309 309 309 309 309 310 310 310 309 308 308 307 306 305 304 304 303 302 302 301 300 300 299 299 298 297 297 296 296
284 287 291 293 297 301 304 306 308 309 310 310 311 311 311 311 311 311 311 310 310 310 310 310 310 311 311 312 313 313 312 312 311 311 310 309 308 307 306 304 304 303 302 301 300 300 299 298 297 296 295 295
284 287 291 295 299 301 303 305 306 307 309 310 311 311 311 311 311 311 311 310 310 311 311 312 312 313 314 314 315 315 315 315 314 314 314 313 311 310 309 308 307 305 304 303 302 302 301 300 299 297 297 296
283 286 290 294 297 298 300 302 304 306 308 309 310 310 310 310 310 311 311 312 312 313 313 314 314 315 316 316 317 317 317 317 316 316 316 316 315 314 313 312 310 308 307 305 304 303 303 302 301 300 299 298
282 285 288 291 293 295 297 300 303 306 307 308 309 308 309 309 310 311 312 313 314 315 315 316 317 317 318 318 318 318 317 317 317 317 317 317 317 316 315 314 312 311 309 308 307 306 305 304 303 303 302 301
277 280 283 285 287 291 296 300 302 304 306 306 307 308 309 310 311 313 314 315 316 317 317 318 318 318 318 318 318 317 317 317 316 316 316 316 316 315 315 315 313 312 311 310 309 309 308 307 306 306 305 303
269 271 274 278 284 291 296 300 301 303 305 306 308 310 312 313 314 316 317 319 319 319 319 319 319 318 318 317 317 317 316 316 315 315 315 315 315 315 315 315 314 313 312 311 311 310 310 309 308 307 306 304
264 267 272 278 287 294 297 298 299 301 304 306 310 313 316 317 318 320 321 323 323 322 321 320 319 318 317 316 316 316 315 314 314 314 314 315 315 315 315 314 313 313 312 311 310 309 309 309 308 307 305 305
265 268 274 281 289 294 295 294 295 298 302 306 311 315 319 320 321 322 323 324 324 323 322 320 319 318 317 316 316 315 315 315 315 315 315 315 315 315 315 314 314 313 313 312 311 310 308 308 310 309 307 305
266 270 274 282 290 292 290 290 293 297 303 307 312 317 320 322 323 323 324 324 324 323 322 320 319 318 317 317 316 316 316 316 316 316 316 316 316 315 315 315 315 316 315 315 315 315 313 312 312 309 305 302
267 271 275 282 288 287 285 288 292 298 303 308 312 315 319 321 323 324 323 323 323 322 321 320 319 319 318 318 317 316 316 316 316 316 316 316 315 316 315 315 316 317 317 317 317 319 316 314 313 307 303 299
266 268 274 281 284 281 281 286 291 296 301 304 308 311 315 318 320 321 321 321 321 320 320 320 320 319 319 318 316 315 315 315 315 314 315 314 314 315 314 314 314 315 316 317 318 318 315 314 312 305 299 297
263 266 272 279 280 278 279 284 290 295 298 300 303 306 309 312 315 316 317 317 317 318 319 319 319 319 319 318 317 315 314 314 313 313 313 313 312 313 312 311 311 312 312 313 313 312 311 313 306 293 295 300
261 265 271 276 277 277 279 282 289 293 294 296 298 300 302 305 308 310 311 312 313 315 317 318 318 319 319 319 317 314 313 313 312 312 312 311 311 310 310 309 308 308 307 307 307 305 303 299 289 288 295 300
260 264 269 274 276 277 278 280 287 290 289 291 293 294 296 298 301 304 306 308 310 312 315 316 317 318 318 319 318 315 313 312 311 310 310 309 309 308 307 306 305 305 304 303 301 299 296 290 284 284 288 290